Weather History for Clintonville, WI

Change the Weather History Date:

Thursday, February 28, 2013

  Actual Average Record
Temperature  
Mean Temperature 30 °F -  
Max Temperature 33 °F 34 °F 48 °F (1998)
Min Temperature 24 °F 16 °F -22 °F (2014)
Degree Days  
Heating Degree Days 36    
Moisture  
Dew Point 23 °F    
Average Humidity 72    
Maximum Humidity 87    
Minimum Humidity 59    
Precipitation  
Precipitation 0.00 in - - ()
Sea Level Pressure  
Sea Level Pressure 29.99 in    
Wind  
Wind Speed 11 mph (NNE)    
Max Wind Speed 16 mph    
Max Gust Speed 23 mph    
Visibility 10 miles    
Events Snow    
Averages and records for this station are not official NWS values.
T = Trace of Precipitation, MM = Missing Value Source: NWS Daily Summary

Daily Weather History Graph

Daily Weather History Graph

Search for Another Location

Airport:

Trip Planner

Search our weather history database for the weather conditions in past years. The results will help you decide how hot, cold, wet, or windy it might be!

Date:

Astronomy

Feb. 28, 2013 Rise Set
Actual Time 6:33 AM CST 5:41 PM CST
Civil Twilight 6:04 AM CST 6:11 PM CST
Nautical Twilight 5:30 AM CST 6:44 PM CST
Astronomical Twilight 4:56 AM CST 7:18 PM CST
Moon 9:19 PM CST (2/28) 7:33 AM CST (2/28)
Length of Visible Light 12h 06m
Length of Day
11h 08m
Waning Gibbous, 90% of the Moon is Illuminated
Feb 28
Waning Gibbous
Mar 4
Last Quarter
Mar 11
New
Mar 19
First Quarter
Mar 27
Full

Hourly Weather History & Observations

Time (CST) Temp. Windchill Dew Point Humidity Pressure Visibility Wind Dir Wind Speed Gust Speed Precip Events Conditions
12:15 AM 33.8 °F 23.5 °F 28.4 °F 81% 29.81 in 10.0 mi NNE 16.1 mph 20.7 mph N/A   Overcast
12:35 AM 33.8 °F 26.4 °F 28.4 °F 81% 29.82 in 10.0 mi North 9.2 mph - N/A   Overcast
12:55 AM 33.8 °F 26.4 °F 28.4 °F 81% 29.82 in 10.0 mi NNE 9.2 mph - N/A   Overcast
1:15 AM 33.8 °F 25.3 °F 28.4 °F 81% 29.82 in 10.0 mi North 11.5 mph - N/A   Overcast
1:35 AM 33.8 °F 24.8 °F 28.4 °F 81% 29.82 in 10.0 mi North 12.7 mph 16.1 mph N/A   Overcast
1:55 AM 32.0 °F 23.6 °F 28.4 °F 87% 29.83 in 10.0 mi North 10.4 mph 17.3 mph N/A   Overcast
2:15 AM 32.0 °F 23.0 °F 28.4 °F 87% 29.83 in 10.0 mi North 11.5 mph 17.3 mph N/A   Overcast
2:35 AM 32.0 °F 23.6 °F 28.4 °F 87% 29.84 in 10.0 mi North 10.4 mph 17.3 mph N/A   Overcast
2:55 AM 32.0 °F 22.5 °F 26.6 °F 80% 29.84 in 10.0 mi NNE 12.7 mph 18.4 mph N/A   Overcast
3:15 AM 32.0 °F 22.5 °F 26.6 °F 80% 29.84 in 10.0 mi North 12.7 mph 18.4 mph N/A   Overcast
3:35 AM 32.0 °F 22.5 °F 26.6 °F 80% 29.85 in 10.0 mi North 12.7 mph 18.4 mph N/A   Overcast
3:55 AM 32.0 °F 22.5 °F 26.6 °F 80% 29.85 in 10.0 mi North 12.7 mph 17.3 mph N/A   Overcast
4:15 AM 32.0 °F 23.6 °F 26.6 °F 80% 29.86 in 10.0 mi North 10.4 mph - N/A   Overcast
4:35 AM 32.0 °F 23.0 °F 26.6 °F 80% 29.86 in 10.0 mi North 11.5 mph 18.4 mph N/A   Overcast
4:55 AM 32.0 °F 24.8 °F 26.6 °F 80% 29.88 in 10.0 mi North 8.1 mph 18.4 mph N/A   Overcast
5:15 AM 32.0 °F 22.1 °F 26.6 °F 80% 29.88 in 10.0 mi NNE 13.8 mph 18.4 mph N/A   Overcast
5:35 AM 32.0 °F 22.1 °F 26.6 °F 80% 29.89 in 10.0 mi North 13.8 mph 18.4 mph N/A   Overcast
5:55 AM 32.0 °F 23.6 °F 26.6 °F 80% 29.90 in 10.0 mi North 10.4 mph 19.6 mph N/A   Overcast
6:15 AM 32.0 °F 24.8 °F 26.6 °F 80% 29.90 in 10.0 mi North 8.1 mph 19.6 mph N/A   Overcast
6:35 AM 32.0 °F 23.6 °F 26.6 °F 80% 29.91 in 10.0 mi North 10.4 mph 18.4 mph N/A   Overcast
6:55 AM 32.0 °F 23.6 °F 26.6 °F 80% 29.92 in 10.0 mi North 10.4 mph - N/A   Overcast
7:15 AM 32.0 °F 23.0 °F 26.6 °F 80% 29.93 in 10.0 mi NNE 11.5 mph 16.1 mph N/A   Overcast
7:35 AM 32.0 °F 23.6 °F 26.6 °F 80% 29.94 in 10.0 mi North 10.4 mph 19.6 mph N/A   Overcast
7:55 AM 32.0 °F 24.2 °F 28.4 °F 87% 29.94 in 5.0 mi North 9.2 mph - N/A Snow Light Snow
8:15 AM 32.0 °F 24.8 °F 28.4 °F 87% 29.95 in 7.0 mi North 8.1 mph - N/A   Overcast
8:35 AM 32.0 °F 23.0 °F 26.6 °F 80% 29.96 in 7.0 mi North 11.5 mph - N/A   Overcast
8:55 AM 32.0 °F 23.0 °F 26.6 °F 80% 29.96 in 10.0 mi North 11.5 mph - N/A   Overcast
9:15 AM 32.0 °F 24.2 °F 26.6 °F 80% 29.97 in 10.0 mi North 9.2 mph - N/A   Overcast
9:35 AM 32.0 °F 24.8 °F 26.6 °F 80% 29.98 in 10.0 mi North 8.1 mph 16.1 mph N/A   Overcast
9:55 AM 32.0 °F 24.2 °F 26.6 °F 80% 29.98 in 10.0 mi North 9.2 mph 17.3 mph N/A   Overcast
10:15 AM 32.0 °F 24.2 °F 24.8 °F 75% 29.99 in 10.0 mi North 9.2 mph 18.4 mph N/A   Overcast
10:35 AM 32.0 °F 22.1 °F 23.0 °F 69% 29.99 in 10.0 mi NNE 13.8 mph 20.7 mph N/A   Overcast
10:55 AM 32.0 °F 23.0 °F 24.8 °F 75% 30.00 in 10.0 mi NNE 11.5 mph 19.6 mph N/A   Overcast
11:15 AM 32.0 °F 22.5 °F 24.8 °F 75% 30.00 in 10.0 mi NNE 12.7 mph 20.7 mph N/A   Overcast
11:35 AM 32.0 °F 24.2 °F 23.0 °F 69% 30.01 in 10.0 mi North 9.2 mph 18.4 mph N/A   Overcast
11:55 AM 32.0 °F 23.0 °F 23.0 °F 69% 30.01 in 10.0 mi North 11.5 mph - N/A   Overcast
12:15 PM 32.0 °F 24.2 °F 23.0 °F 69% 30.01 in 10.0 mi NNE 9.2 mph - N/A   Overcast
12:35 PM 32.0 °F 22.5 °F 23.0 °F 69% 30.01 in 10.0 mi North 12.7 mph - N/A   Overcast
12:55 PM 32.0 °F 22.5 °F 23.0 °F 69% 30.02 in 10.0 mi NNE 12.7 mph 18.4 mph N/A   Overcast
1:15 PM 32.0 °F 22.1 °F 21.2 °F 64% 30.02 in 10.0 mi North 13.8 mph - N/A   Overcast
1:35 PM 32.0 °F 23.0 °F 21.2 °F 64% 30.02 in 10.0 mi North 11.5 mph - N/A   Overcast
1:55 PM 32.0 °F 23.0 °F 19.4 °F 60% 30.02 in 10.0 mi NNE 11.5 mph 18.4 mph N/A   Overcast
2:15 PM 32.0 °F 24.2 °F 19.4 °F 60% 30.01 in 10.0 mi NNE 9.2 mph 17.3 mph N/A   Overcast
2:35 PM 32.0 °F 23.0 °F 19.4 °F 60% 30.02 in 10.0 mi NE 11.5 mph - N/A   Overcast
2:55 PM 32.0 °F 23.6 °F 19.4 °F 60% 30.02 in 10.0 mi NNE 10.4 mph - N/A   Overcast
3:15 PM 32.0 °F 22.1 °F 21.2 °F 64% 30.03 in 10.0 mi NNE 13.8 mph 18.4 mph N/A   Overcast
3:35 PM 32.0 °F 23.6 °F 19.4 °F 60% 30.04 in 10.0 mi NE 10.4 mph - N/A   Overcast
3:55 PM 32.0 °F 24.2 °F 19.4 °F 60% 30.04 in 10.0 mi NNE 9.2 mph - N/A   Overcast
4:15 PM 32.0 °F 23.0 °F 19.4 °F 60% 30.05 in 10.0 mi NNE 11.5 mph 18.4 mph N/A   Overcast
4:35 PM 32.0 °F 23.0 °F 19.4 °F 60% 30.06 in 10.0 mi NNE 11.5 mph 16.1 mph N/A   Overcast
4:55 PM 30.2 °F 20.2 °F 19.4 °F 64% 30.06 in 10.0 mi NNE 12.7 mph - N/A   Overcast
5:15 PM 30.2 °F 21.3 °F 19.4 °F 64% 30.07 in 10.0 mi NE 10.4 mph - N/A   Overcast
5:35 PM 30.2 °F 20.8 °F 17.6 °F 60% 30.08 in 10.0 mi NE 11.5 mph 17.3 mph N/A   Overcast
5:55 PM 30.2 °F 21.9 °F 17.6 °F 60% 30.09 in 10.0 mi NNE 9.2 mph - N/A   Overcast
6:15 PM 30.2 °F 21.9 °F 17.6 °F 60% 30.09 in 10.0 mi NNE 9.2 mph - N/A   Overcast
6:35 PM 30.2 °F 22.6 °F 17.6 °F 60% 30.09 in 10.0 mi NE 8.1 mph - N/A   Overcast
6:55 PM 28.4 °F 18.0 °F 17.6 °F 64% 30.10 in 10.0 mi NE 12.7 mph 16.1 mph N/A   Overcast
7:15 PM 28.4 °F 17.0 °F 17.6 °F 64% 30.11 in 10.0 mi NNE 15.0 mph 20.7 mph N/A   Overcast
7:35 PM 28.4 °F 16.6 °F 15.8 °F 59% 30.11 in 10.0 mi NNE 16.1 mph 21.9 mph N/A   Overcast
7:55 PM 28.4 °F 18.0 °F 17.6 °F 64% 30.12 in 10.0 mi NE 12.7 mph 19.6 mph N/A   Overcast
8:15 PM 26.6 °F 16.2 °F 17.6 °F 69% 30.13 in 10.0 mi NE 11.5 mph 21.9 mph N/A   Overcast
8:35 PM 26.6 °F 16.2 °F 15.8 °F 64% 30.14 in 10.0 mi NE 11.5 mph 18.4 mph N/A   Overcast
8:55 PM 26.6 °F 15.2 °F 15.8 °F 64% 30.14 in 10.0 mi NE 13.8 mph 23.0 mph N/A   Overcast
9:15 PM 26.6 °F 16.2 °F 15.8 °F 64% 30.15 in 10.0 mi NE 11.5 mph 17.3 mph N/A   Overcast
9:35 PM 26.6 °F 15.7 °F 15.8 °F 64% 30.15 in 10.0 mi NNE 12.7 mph 17.3 mph N/A   Overcast
9:55 PM 26.6 °F 19.1 °F 15.8 °F 64% 30.15 in 10.0 mi North 6.9 mph - N/A   Overcast
10:15 PM 26.6 °F 18.2 °F 15.8 °F 64% 30.15 in 10.0 mi NNE 8.1 mph - N/A   Overcast
10:35 PM 26.6 °F 15.7 °F 15.8 °F 64% 30.15 in 10.0 mi NNE 12.7 mph 16.1 mph N/A   Overcast
10:55 PM 26.6 °F 19.1 °F 17.6 °F 69% 30.15 in 10.0 mi NNE 6.9 mph - N/A   Overcast
11:15 PM 26.6 °F 18.2 °F 17.6 °F 69% 30.15 in 10.0 mi NNE 8.1 mph - N/A   Overcast
11:35 PM 26.6 °F 20.0 °F 17.6 °F 69% 30.15 in 10.0 mi North 5.8 mph - N/A   Overcast
11:55 PM 24.8 °F 16.9 °F 17.6 °F 74% 30.14 in 10.0 mi North 6.9 mph - N/A   Overcast